Waarnemingen

Advertentie
Mijn weer
Asturias/Aviles, Spanje (8011): temperatuur & dauwpunt: 07.11.2019 04:00:00 - 13.11.2019 04:00:00 (CET)Asturias/Aviles, Spanje (8011): windsnelheid & windstoten: 07.11.2019 04:00:00 - 13.11.2019 04:00:00 (CET)Asturias/Aviles, Spanje (8011): windrichting: 07.11.2019 04:00:00 - 13.11.2019 04:00:00 (CET)Asturias/Aviles, Spanje (8011): luchtdruk: 07.11.2019 04:00:00 - 13.11.2019 04:00:00 (CET)Asturias/Aviles, Spanje (8011): zicht: 07.11.2019 04:00:00 - 13.11.2019 04:00:00 (CET)
Datum & Tijd tt [°C] td [°C] ff [km/u] ff [kn] fx [km/u] fx [kn] dd ppp [hPa] vv [km]
13.11.2019 04:00:00 11,1 11,1 8 4 - - NO 1009,1 -
13.11.2019 03:00:00 11,4 11,4 8 4 - - NO 1008,2 -
13.11.2019 02:00:00 11,1 11,1 5 3 - - NO 1007,4 -
13.11.2019 01:00:00 11,0 11,0 4 2 - - ONO 1005,8 -
13.11.2019 00:00:00 11,0 11,0 5 3 - - O 1005,1 -
12.11.2019 23:00:00 10,9 10,9 15 8 - - ZO 1004,9 -
12.11.2019 22:00:00 11,1 11,1 16 9 - - ZO 1005,2 2,0
12.11.2019 21:00:00 12,4 12,4 4 2 - - WZW 1005,0 -
12.11.2019 20:00:00 12,0 12,0 11 6 - - ZW 1005,6 -
12.11.2019 19:00:00 11,3 11,1 8 4 - - ZZO 1006,3 2,5
12.11.2019 18:00:00 11,6 10,8 9 5 - - Z 1006,5 -
12.11.2019 17:00:00 10,8 10,3 8 4 - - Z 1007,8 -
12.11.2019 16:00:00 10,7 10,2 15 8 - - ZO 1008,8 10
12.11.2019 15:00:00 11,2 9,1 8 4 - - ZZW 1010,5 -
12.11.2019 14:00:00 11,7 8,5 13 7 - - ZZW 1012,4 -
12.11.2019 13:00:00 12,0 8,0 15 8 - - WZW 1014,3 12
12.11.2019 12:00:00 12,6 6,8 18 10 - - ZW 1015,4 -
12.11.2019 11:00:00 11,6 7,3 16 9 - - ZW 1015,9 -
12.11.2019 10:00:00 9,7 6,6 18 10 - - ZW 1016,8 20
12.11.2019 09:00:00 9,2 6,6 16 9 - - ZW 1017,3 -
12.11.2019 08:00:00 9,1 6,9 15 8 - - ZW 1017,5 -
12.11.2019 07:00:00 9,5 6,0 15 8 - - WZW 1017,7 15
12.11.2019 06:00:00 9,5 5,5 16 9 - - WZW 1018,4 -
12.11.2019 05:00:00 9,4 5,6 15 8 - - WZW 1018,3 -
12.11.2019 04:00:00 9,2 5,7 16 9 - - ZW 1018,7 -
12.11.2019 03:00:00 9,0 6,5 18 10 - - ZW 1019,2 -
12.11.2019 02:00:00 8,9 7,1 15 8 - - WZW 1020,2 -
12.11.2019 01:00:00 9,5 7,0 21 11 - - W 1020,5 -
12.11.2019 00:00:00 8,8 7,2 16 9 - - ZW 1020,9 -
11.11.2019 23:00:00 8,5 7,6 18 10 - - ZW 1020,9 -
11.11.2019 22:00:00 9,1 7,9 15 8 - - WZW 1021,5 -
11.11.2019 21:00:00 9,2 7,5 11 6 - - ZW 1021,6 -
11.11.2019 20:00:00 10,0 6,7 11 6 - - ZW 1021,6 -
11.11.2019 19:00:00 11,0 5,8 13 7 - - WZW 1021,6 10
11.11.2019 18:00:00 11,6 5,8 13 7 - - W 1021,2 -
11.11.2019 17:00:00 12,2 4,7 13 7 - - WNW 1020,9 -
11.11.2019 16:00:00 12,5 5,4 13 7 - - WNW 1020,9 10
11.11.2019 15:00:00 12,9 5,8 13 7 - - WNW 1020,8 -
11.11.2019 14:00:00 12,8 7,8 11 6 - - WNW 1020,8 -
11.11.2019 13:00:00 13,3 5,7 15 8 - - WNW 1020,8 10
11.11.2019 12:00:00 12,8 7,4 9 5 - - W 1021,1 -
11.11.2019 11:00:00 13,2 8,7 13 7 - - WNW 1020,2 -
11.11.2019 10:00:00 13,0 10,5 22 12 - - WNW 1019,4 9
11.11.2019 09:00:00 13,4 10,4 24 13 - - NW 1017,8 -
11.11.2019 08:00:00 12,9 12,9 16 9 - - WNW 1016,6 -
11.11.2019 07:00:00 13,7 13,7 39 21 - - WNW 1015,0 7
11.11.2019 06:00:00 10,7 10,7 16 9 - - ZW 1015,2 -
11.11.2019 05:00:00 9,6 9,5 15 8 - - ZW 1016,1 -
11.11.2019 04:00:00 9,2 7,9 15 8 - - ZW 1016,8 -
11.11.2019 03:00:00 9,2 6,8 16 9 - - ZW 1017,0 -
11.11.2019 02:00:00 8,7 6,7 15 8 - - ZW 1017,8 -
11.11.2019 01:00:00 8,7 5,8 16 9 - - ZW 1018,7 -
11.11.2019 00:00:00 8,4 5,5 18 10 - - ZZW 1018,6 -
10.11.2019 23:00:00 8,6 5,2 16 9 - - ZW 1019,3 -
10.11.2019 22:00:00 8,3 5,4 18 10 - - ZW 1019,4 15
10.11.2019 21:00:00 8,2 5,7 18 10 - - ZW 1019,7 -
10.11.2019 20:00:00 8,4 6,1 18 10 - - ZW 1020,3 -
10.11.2019 19:00:00 8,6 7,2 15 8 - - ZW 1020,4 12
10.11.2019 18:00:00 9,1 7,7 18 10 - - WZW 1020,2 -
10.11.2019 17:00:00 9,7 8,0 29 16 - - W 1019,8 -
10.11.2019 16:00:00 10,4 7,9 28 15 - - WNW 1020,0 15
10.11.2019 15:00:00 10,5 7,2 26 14 - - WNW 1019,6 -
10.11.2019 14:00:00 10,3 7,4 22 12 - - WNW 1019,8 -
10.11.2019 13:00:00 10,7 6,9 16 9 - - WNW 1019,5 5
10.11.2019 12:00:00 9,9 8,0 28 15 - - WNW 1019,8 -
10.11.2019 11:00:00 11,6 7,7 28 15 - - NW 1019,7 -
10.11.2019 10:00:00 11,5 7,5 26 14 - - WNW 1019,0 18
10.11.2019 09:00:00 11,1 6,8 35 19 - - W 1018,8 -
10.11.2019 08:00:00 11,6 6,7 26 14 - - WNW 1018,7 -
10.11.2019 07:00:00 10,4 6,7 29 16 - - WNW 1019,0 8
10.11.2019 06:00:00 9,9 5,7 31 17 - - W 1019,2 -
10.11.2019 05:00:00 8,5 6,2 28 15 - - W 1019,5 -
10.11.2019 04:00:00 9,8 5,0 29 16 - - W 1019,9 -
10.11.2019 03:00:00 10,1 4,9 35 19 - - W 1020,2 -
10.11.2019 02:00:00 11,2 4,9 28 15 - - WNW 1020,2 -
10.11.2019 01:00:00 11,5 3,0 29 16 - - NW 1020,3 -
10.11.2019 00:00:00 9,8 5,5 35 19 - - W 1020,3 -
09.11.2019 23:00:00 10,7 6,6 24 13 - - WNW 1020,2 -
09.11.2019 22:00:00 11,0 6,5 42 23 - - WNW 1019,4 12
09.11.2019 21:00:00 10,6 6,7 15 8 - - NW 1019,5 -
09.11.2019 20:00:00 11,7 6,2 34 18 - - NW 1018,9 -
09.11.2019 19:00:00 11,3 9,0 35 19 - - WNW 1018,5 6
09.11.2019 18:00:00 10,8 9,1 39 21 - - W 1017,6 -
09.11.2019 17:00:00 11,4 10,3 35 19 - - WNW 1017,6 -
09.11.2019 16:00:00 13,3 8,4 29 16 - - W 1017,1 10
09.11.2019 15:00:00 13,4 8,6 39 21 - - W 1017,4 -
09.11.2019 14:00:00 13,4 9,4 35 19 - - W 1017,3 -
09.11.2019 13:00:00 12,5 11,8 48 26 - - W 1017,4 5
09.11.2019 12:00:00 15,8 9,0 37 20 - - W 1015,9 -
09.11.2019 11:00:00 15,2 9,0 34 18 - - W 1015,8 -
09.11.2019 10:00:00 12,4 7,8 21 11 - - WZW 1015,5 30
09.11.2019 09:00:00 10,6 7,3 22 12 - - ZW 1015,5 -
09.11.2019 08:00:00 9,6 7,0 24 13 - - ZW 1016,2 -
09.11.2019 07:00:00 10,0 5,4 21 11 - - ZW 1017,7 10
09.11.2019 06:00:00 9,5 5,6 22 12 - - ZW 1018,4 -
09.11.2019 05:00:00 10,0 4,8 21 11 - - ZW 1019,1 -
09.11.2019 04:00:00 10,1 4,9 18 10 - - ZW 1019,7 -
09.11.2019 03:00:00 9,8 4,8 18 10 - - ZW 1020,0 -
09.11.2019 02:00:00 9,7 4,9 18 10 - - ZW 1020,4 -
09.11.2019 01:00:00 9,9 5,3 16 9 - - WZW 1021,1 -
09.11.2019 00:00:00 9,1 6,2 15 8 - - WZW 1021,3 -
08.11.2019 23:00:00 8,6 7,2 16 9 - - ZW 1021,5 -
08.11.2019 22:00:00 9,1 7,4 16 9 - - W 1021,7 8
08.11.2019 21:00:00 9,1 6,9 16 9 - - ZW 1021,2 -
08.11.2019 20:00:00 10,1 6,2 24 13 - - W 1021,1 -
08.11.2019 19:00:00 9,8 7,4 24 13 - - W 1020,6 15
08.11.2019 18:00:00 11,3 6,2 26 14 - - WNW 1019,8 -
08.11.2019 17:00:00 10,3 6,6 26 14 - - W 1019,6 -
08.11.2019 16:00:00 11,7 5,9 31 17 - - WNW 1018,9 20
08.11.2019 15:00:00 11,1 7,1 26 14 - - W 1018,4 -
08.11.2019 14:00:00 10,6 7,4 24 13 78 42 NW 1018,0 -
08.11.2019 13:00:00 11,7 6,6 34 18 - - WNW 1017,6 20
08.11.2019 12:00:00 11,6 6,8 31 17 - - WNW 1017,3 -
08.11.2019 11:00:00 11,5 7,6 26 14 - - NW 1016,6 -
08.11.2019 10:00:00 11,0 7,5 34 18 - - W 1015,7 15
08.11.2019 09:00:00 10,3 6,8 34 18 - - W 1014,9 -
08.11.2019 08:00:00 9,2 6,8 29 16 - - W 1014,0 -
08.11.2019 07:00:00 6,5 5,0 16 9 - - ZW 1013,1 15
08.11.2019 06:00:00 7,7 5,6 28 15 - - WZW 1012,9 -
08.11.2019 05:00:00 8,4 4,7 37 20 - - W 1012,0 -
08.11.2019 04:00:00 6,3 4,8 13 7 - - ZZW 1011,8 -
08.11.2019 03:00:00 6,6 5,3 28 15 - - WZW 1010,7 -
08.11.2019 02:00:00 6,0 4,5 24 13 - - ZW 1011,4 -
08.11.2019 01:00:00 7,7 4,6 41 22 - - W 1011,6 -
08.11.2019 00:00:00 6,8 3,8 24 13 - - ZW 1010,4 -
07.11.2019 23:00:00 6,7 3,8 28 15 - - ZW 1010,7 -
07.11.2019 22:00:00 6,9 3,5 31 17 - - ZW 1010,4 10
07.11.2019 21:00:00 6,8 3,1 29 16 - - ZW 1010,2 -
07.11.2019 20:00:00 6,8 3,0 24 13 - - WZW 1010,5 -
07.11.2019 19:00:00 7,0 3,7 26 14 - - ZW 1010,7 12
07.11.2019 18:00:00 6,6 4,1 18 10 - - ZW 1010,7 -
07.11.2019 17:00:00 6,4 4,6 18 10 - - WZW 1011,7 -
07.11.2019 16:00:00 7,9 3,0 29 16 - - WZW 1011,1 10
07.11.2019 15:00:00 7,7 4,2 28 15 - - WZW 1011,4 -
07.11.2019 14:00:00 9,7 3,5 29 16 - - WZW 1011,2 -
07.11.2019 13:00:00 7,9 5,7 21 11 - - W 1012,0 10
07.11.2019 12:00:00 10,7 3,9 29 16 - - W 1011,8 -
07.11.2019 11:00:00 9,7 3,8 31 17 - - W 1012,0 -
07.11.2019 10:00:00 9,4 5,1 22 12 - - ZW 1012,1 15
07.11.2019 09:00:00 8,1 3,4 37 20 - - W 1012,7 -
07.11.2019 08:00:00 8,6 4,6 18 10 - - WZW 1011,5 -
07.11.2019 07:00:00 8,7 5,2 18 10 - - W 1011,7 9
07.11.2019 06:00:00 8,5 6,3 29 16 - - W 1012,2 -
07.11.2019 05:00:00 8,1 5,6 34 18 - - WNW 1012,4 -
07.11.2019 04:00:00 9,4 6,1 24 13 - - WZW 1011,8 -

tt = temperatuur
td = dauwpunt
ff = windsnelheid
fx = windstoten
dd = windrichting
ppp = luchtdruk
vv = zicht

Weerstations in de omgeving